Location: Dampvalley
(47.9094°N, 6.1967°E)
Time: 07:30:10
(UTC+00:00)

SJ-6F - Pass Details

Date: 05 March 2021
Orbit: 572 x 592 km, 97.8° (Epoch: 18 April)

Event Time Altitude Azimuth Distance (km) Brightness Sun altitude
Rises 04:07:36 0° 14° (NNE) 2,828 8.3 -20.9°
Reaches altitude 10° 04:09:46 10° 15° (NNE) 1,925 7.4 -20.5°
Maximum altitude 04:13:58 81° 104° (ESE) 604 4.5 -19.9°
Enters shadow 04:17:10 17° 190° (S) 1,524 6.3 -19.3°
